Regional Weather Roundup
Issued by NWS

Home | Current Version | Previous Version | Text Only | Print | Product List | Glossary On
Versions: 1 2 3 4 5 6 7 8 9 10 11 12 13 14 15 16 17 18 19 20 21 22 23 24 25 26 27 28 29 30 31 32 33 34 35 36 37 38 39 40 41 42 43 44 45 46 47 48 49 50
000
ASUS43 KMKX 291000
RWRWI

WISCONSIN REGIONAL WEATHER ROUNDUP
NATIONAL WEATHER SERVICE MILWAUKEE/SULLIVAN WI
500 AM CDT FRI APR 29 2016

NOTE: "FAIR" INDICATES FEW OR NO CLOUDS BELOW 12,000 FEET WITH NO
SIGNIFICANT WEATHER AND/OR OBSTRUCTIONS TO VISIBILITY.

WIZ001-002-006>008-014>016-023>028-291100-
NORTHWEST WISCONSIN

CITY           SKY/WX    TMP DP  RH WIND       PRES   REMARKS
SUPERIOR ARPT  CLOUDY    26  26  98 CALM      30.19R
ASHLAND        CLOUDY    27  26  96 W5        30.17R WCI  22
HAYWARD        CLOUDY    28  24  85 CALM      30.15R
SIREN          CLOUDY    29  27  93 CALM      30.16S
CUMBERLAND     MOCLDY    32  28  86 CALM      30.15R
RICE LAKE      CLOUDY    37  32  81 W3        30.17R
CHETEK         CLOUDY    39  37  91 W3        30.16R
LADYSMITH      CLOUDY    40  37  87 CALM      30.15S
EAU CLAIRE     CLOUDY    40  38  93 N3        30.14S
MENOMONIE      CLOUDY    39  39  99 NW3       30.15F
NEW RICHMOND   CLOUDY    37  37  99 CALM      30.16S
OSCEOLA        CLOUDY    37  37 100 CALM      30.19S FOG
$$

WIZ003>005-009-010-017-018-291100-
NORTH CENTRAL WISCONSIN

CITY           SKY/WX    TMP DP  RH WIND       PRES   REMARKS
MANITOWISH WTR CLOUDY    36  36 100 CALM      30.12R
ARBOR VITAE    CLOUDY    39  37  92 CALM      30.11R
WOODRUFF       CLOUDY    39  37  92 CALM      30.11R
RHINELANDER    LGT RAIN  37  35  92 CALM      30.11S
EAGLE RIVER    DRIZZLE   37  35  93 CALM      30.11S
LAND O LAKES   MOCLDY    38  33  82 CALM      30.13R
PHILLIPS       CLOUDY    38  35  89 CALM      30.12R
TOMAHAWK       CLOUDY    36  35  95 CALM      30.12S
MEDFORD        DRIZZLE   36  36 100 CALM      30.11S
MERRILL        CLOUDY    37  37 100 CALM      30.12S
$$

WIZ029-030-035-036-043>047-291100-
CENTRAL WISCONSIN

CITY           SKY/WX    TMP DP  RH WIND       PRES   REMARKS
WAUSAU         CLOUDY    40  35  83 N6        30.09S
MOSINEE        CLOUDY    36  36 100 N5        30.11S WCI  32
MARSHFIELD     CLOUDY    39  35  86 N5        30.10S
STEVENS POINT  CLOUDY    35  34  96 N5        30.11R WCI  31
WAUPACA        CLOUDY    41  35  79 N6        30.09R
WAUTOMA        NOT AVBL
WISC RAPIDS    CLOUDY    39  34  82 N8        30.11F WCI  33
CAMP DOUGLAS   NOT AVBL
$$

WIZ011>013-019>022-031-037>040-048>050-291100-
NORTHEAST WISCONSIN

CITY           SKY/WX    TMP DP  RH WIND       PRES   REMARKS
ANTIGO         CLOUDY    36  35  97 N6        30.10S WCI  31
SHAWANO        CLOUDY    40  37  86 N5        30.10S
OCONTO         CLOUDY    40  35  83 NW3       30.09S
STURGEON BAY   CLOUDY    39  30  70 NE3       30.11S
GREEN BAY      LGT RAIN  41  36  82 NE6       30.08S
MANITOWOC      NOT AVBL
APPLETON       CLOUDY    39  32  75 N6        30.06R WCI  35
CLINTONVILLE   CLOUDY    37  34  87 N6        30.09R WCI  33
OSHKOSH        CLOUDY    42  34  73 CALM      30.07R
$$

WIZ032>034-041-042-053>061-291100-
SOUTHWEST WISCONSIN

CITY           SKY/WX    TMP DP  RH WIND       PRES   REMARKS
LA CROSSE      CLOUDY    40  36  86 NW7       30.13R
SPARTA         CLOUDY    37  37  98 N3        30.12R
VIROQUA        CLOUDY    37  37 100 CALM      30.10R
BOSCOBEL       CLOUDY    42  39  89 CALM      30.11R
PRAIRIE DU CHI CLOUDY    40  37  86 CALM      30.11R
PLATTEVILLE    CLOUDY    40  39  96 N6        30.08R
$$

WIZ056-057-062-063-064-067-068-291100-
SOUTH CENTRAL WISCONSIN

CITY           SKY/WX    TMP DP  RH WIND       PRES   REMARKS
REEDSBURG      CLOUDY    37  36  95 N3        30.09R
BARABOO/DELLS  CLOUDY    37  35  94 N3        30.08S
LONE ROCK      NOT AVBL
MINERAL POINT  CLOUDY    41  39  93 N6        30.08R FOG
MADISON        CLOUDY    39  37  92 N9        30.07S WCI  33
MIDDLETON      CLOUDY    41  39  94 N7        30.08S
WATERTOWN      DRIZZLE   39  39 100 NW3       30.06S
MONROE         CLOUDY    37  37 100 N6        30.06R WCI  33
JANESVILLE     CLOUDY    41  41 100 N3        30.06R
$$

WIZ051-052-058>065-066-070>072-291100-
SOUTHEAST WISCONSIN

CITY           SKY/WX    TMP DP  RH WIND       PRES   REMARKS
MILWAUKEE      LGT RAIN  40  38  93 NE5       30.05R
WAUKESHA       DRIZZLE   36  36 100 CALM      30.06S
MILWAUKEE/TIMM CLOUDY    37  36  93 CALM      30.06S
RACINE         CLOUDY    40  37  89 N7        30.06S
BURLINGTON     CLOUDY    39  38  99 N3        30.05S FOG
KENOSHA        CLOUDY    40  38  93 N7        30.05R
FOND DU LAC    LGT RAIN  40  36  86 NE3       30.07R
SHEBOYGAN      LGT RAIN  39  36  89 N3        30.07R
WEST BEND      CLOUDY    37  36  93 NW3       30.06R
JUNEAU         DRIZZLE   37  36  94 N6        30.07S WCI  33
$$

LSZ147-162-291100-
LAKE SUPERIOR

STATION/POSITION TIME  TEMP    WIND        PRES    WAVE
                       AIR SEA DIR/SP/G            HT/PER
                 (UTC) (F)     (DEG/KT/KT) (MB)    (FT/S)
W MID LAKE BUOY  0850   37 36   10/  4/  4 1021.8R   1/ 4
DEVILS ISLAND    0900   37      20/  8/  9 1022.3R
SAXON HARBOR     0900   30     180/  4/  8 1020.7R
$$

LMZ867-665-643>646-291100-
LAKE MICHIGAN

STATION/POSITION TIME  TEMP    WIND        PRES    WAVE
                       AIR SEA DIR/SP/G            HT/PER
                 (UTC) (F)     (DEG/KT/KT) (MB)    (FT/S)
CHAMBERS ISLAND  0900   40      10/  8/ 10 1019.3R
N MID LAKE BUOY  0850   39 38  100/  4/  4 1019.4R   1
NORTHPORT PIER   0900   40      20/  4/  5 1019.3R
ALGOMA LAKESHORE 0915           10/  3/  5   N/A
KEWAUNEE LAKESHO 0900   41     260/  2/  4 1017.9R
SHEBOYGAN LAKESH 0900   40      60/  4/  5 1018.9R
PORT WASHINGTON  0900   41     360/  2/  5 1018.6S
S MID LAKE BUOY  0850   41 40   40/  8/ 10 1016.7R   1/ 3
KENOSHA   LAKESH 0900   41      10/ 12/ 14 1017.3R
$$

TC  - TEMPERATURE IN CELSIUS
VSB - VISIBILITY IN STATUTE MILES
WCI - WIND CHILL INDEX
HX  - HEAT INDEX





USA.gov is the U.S. government's official web portal to all federal, state and local government web resources and services.